PRIVATE WETTERSTATION BILLIGHEIM-ALLFELD                       ZURCK
Wetterdaten: Mittwoch, 29.10.2014
Datum Zeit Temp. A. Temp. A. min Temp. A. max Feuchte A. Luftdruck Regen Wind Richtung Richtung Sonnenschein ET Solar Taupunkt Windchill Windben Empfang
29.10.2014 00:00 5,5 C 5,4 C 5,5 C 91 % 1018,2 hPa 0,0 l/m 0,0 km/h (0 Bft) N 0 0 min 0,000 mm 0 W/m 4,2 C 5,5 C 0,0 km/h (0 Bft) 100 %
29.10.2014 00:10 5,6 C 5,5 C 5,6 C 91 % 1018,2 hPa 0,0 l/m 0,0 km/h (0 Bft) N 0 0 min 0,000 mm 0 W/m 4,2 C 5,6 C 0,0 km/h (0 Bft) 100 %
29.10.2014 00:20 5,6 C 5,6 C 5,6 C 91 % 1018,3 hPa 0,0 l/m 0,0 km/h (0 Bft) N 0 0 min 0,000 mm 0 W/m 4,2 C 5,6 C 0,0 km/h (0 Bft) 100 %
29.10.2014 00:30 5,6 C 5,6 C 5,6 C 91 % 1018,3 hPa 0,0 l/m 0,0 km/h (0 Bft) N 0 0 min 0,000 mm 0 W/m 4,2 C 5,6 C 0,0 km/h (0 Bft) 100 %
29.10.2014 00:40 5,6 C 5,6 C 5,6 C 91 % 1018,0 hPa 0,0 l/m 0,0 km/h (0 Bft) N 0 0 min 0,000 mm 0 W/m 4,2 C 5,6 C 0,0 km/h (0 Bft) 100 %
29.10.2014 00:50 5,7 C 5,6 C 5,7 C 91 % 1018,0 hPa 0,0 l/m 0,0 km/h (0 Bft) N 0 0 min 0,000 mm 0 W/m 4,3 C 5,7 C 0,0 km/h (0 Bft) 100 %
29.10.2014 01:00 5,7 C 5,7 C 5,7 C 91 % 1017,8 hPa 0,0 l/m 0,0 km/h (0 Bft) N-NW 337 0 min 0,000 mm 0 W/m 4,3 C 5,7 C 3,2 km/h (1 Bft) 100 %
29.10.2014 01:10 5,7 C 5,7 C 5,7 C 91 % 1017,7 hPa 0,0 l/m 0,0 km/h (0 Bft) N-NW 337 0 min 0,000 mm 0 W/m 4,3 C 5,7 C 1,6 km/h (1 Bft) 100 %
29.10.2014 01:20 5,8 C 5,7 C 5,8 C 91 % 1017,8 hPa 0,0 l/m 0,0 km/h (0 Bft) N-NW 337 0 min 0,000 mm 0 W/m 4,4 C 5,8 C 1,6 km/h (1 Bft) 100 %
29.10.2014 01:30 5,8 C 5,7 C 5,8 C 91 % 1017,7 hPa 0,0 l/m 0,0 km/h (0 Bft) N 0 0 min 0,000 mm 0 W/m 4,4 C 5,8 C 0,0 km/h (0 Bft) 100 %
29.10.2014 01:40 5,8 C 5,8 C 5,8 C 91 % 1017,7 hPa 0,0 l/m 0,0 km/h (0 Bft) N 0 0 min 0,000 mm 0 W/m 4,4 C 5,8 C 0,0 km/h (0 Bft) 100 %
29.10.2014 01:50 5,8 C 5,8 C 5,8 C 91 % 1017,7 hPa 0,0 l/m 0,0 km/h (0 Bft) N 0 0 min 0,000 mm 0 W/m 4,4 C 5,8 C 0,0 km/h (0 Bft) 100 %
29.10.2014 02:00 5,8 C 5,8 C 5,8 C 91 % 1017,7 hPa 0,0 l/m 0,0 km/h (0 Bft) N-NW 337 0 min 0,000 mm 0 W/m 4,4 C 5,8 C 3,2 km/h (1 Bft) 100 %
29.10.2014 02:10 5,8 C 5,8 C 5,8 C 91 % 1017,6 hPa 0,0 l/m 0,0 km/h (0 Bft) N 0 0 min 0,000 mm 0 W/m 4,4 C 5,8 C 0,0 km/h (0 Bft) 100 %
29.10.2014 02:20 5,8 C 5,8 C 5,8 C 91 % 1017,5 hPa 0,0 l/m 0,0 km/h (0 Bft) N 0 0 min 0,000 mm 0 W/m 4,4 C 5,8 C 0,0 km/h (0 Bft) 100 %
29.10.2014 02:30 5,8 C 5,8 C 5,8 C 91 % 1017,4 hPa 0,0 l/m 0,0 km/h (0 Bft) N 0 0 min 0,000 mm 0 W/m 4,4 C 5,8 C 0,0 km/h (0 Bft) 100 %
29.10.2014 02:40 5,8 C 5,8 C 5,8 C 91 % 1017,3 hPa 0,0 l/m 0,0 km/h (0 Bft) N 0 0 min 0,000 mm 0 W/m 4,4 C 5,8 C 0,0 km/h (0 Bft) 100 %
29.10.2014 02:50 5,8 C 5,8 C 5,8 C 91 % 1017,3 hPa 0,0 l/m 0,0 km/h (0 Bft) N 0 0 min 0,000 mm 0 W/m 4,4 C 5,8 C 0,0 km/h (0 Bft) 100 %
29.10.2014 03:00 5,8 C 5,8 C 5,8 C 91 % 1017,3 hPa 0,0 l/m 0,0 km/h (0 Bft) N 0 0 min 0,000 mm 0 W/m 4,4 C 5,8 C 0,0 km/h (0 Bft) 100 %
29.10.2014 03:10 5,9 C 5,8 C 5,9 C 91 % 1017,3 hPa 0,0 l/m 0,0 km/h (0 Bft) N 0 0 min 0,000 mm 0 W/m 4,5 C 5,9 C 0,0 km/h (0 Bft) 100 %
29.10.2014 03:20 5,9 C 5,8 C 5,9 C 91 % 1017,3 hPa 0,0 l/m 0,0 km/h (0 Bft) N 0 0 min 0,000 mm 0 W/m 4,5 C 5,9 C 0,0 km/h (0 Bft) 100 %
29.10.2014 03:30 5,8 C 5,8 C 5,9 C 91 % 1017,4 hPa 0,0 l/m 0,0 km/h (0 Bft) N 0 0 min 0,000 mm 0 W/m 4,4 C 5,8 C 0,0 km/h (0 Bft) 100 %
29.10.2014 03:40 5,8 C 5,8 C 5,8 C 91 % 1017,2 hPa 0,0 l/m 0,0 km/h (0 Bft) N 0 0 min 0,000 mm 0 W/m 4,4 C 5,8 C 0,0 km/h (0 Bft) 100 %
29.10.2014 03:50 5,8 C 5,8 C 5,8 C 91 % 1017,3 hPa 0,0 l/m 0,0 km/h (0 Bft) N 0 0 min 0,000 mm 0 W/m 4,4 C 5,8 C 0,0 km/h (0 Bft) 100 %
29.10.2014 04:00 5,8 C 5,8 C 5,8 C 91 % 1017,3 hPa 0,0 l/m 0,0 km/h (0 Bft) N 0 0 min 0,000 mm 0 W/m 4,4 C 5,8 C 0,0 km/h (0 Bft) 100 %
29.10.2014 04:10 5,8 C 5,8 C 5,8 C 91 % 1017,3 hPa 0,0 l/m 0,0 km/h (0 Bft) N 0 0 min 0,000 mm 0 W/m 4,4 C 5,8 C 0,0 km/h (0 Bft) 100 %
29.10.2014 04:20 5,8 C 5,8 C 5,8 C 91 % 1017,4 hPa 0,0 l/m 0,0 km/h (0 Bft) N 0 0 min 0,000 mm 0 W/m 4,4 C 5,8 C 0,0 km/h (0 Bft) 100 %
29.10.2014 04:30 5,8 C 5,8 C 5,8 C 91 % 1017,5 hPa 0,0 l/m 0,0 km/h (0 Bft) N 0 0 min 0,000 mm 0 W/m 4,4 C 5,8 C 0,0 km/h (0 Bft) 100 %
29.10.2014 04:40 5,8 C 5,8 C 5,9 C 91 % 1017,4 hPa 0,0 l/m 0,0 km/h (0 Bft) N 0 0 min 0,000 mm 0 W/m 4,4 C 5,8 C 0,0 km/h (0 Bft) 100 %
29.10.2014 04:50 5,9 C 5,8 C 5,9 C 91 % 1017,6 hPa 0,0 l/m 0,0 km/h (0 Bft) N 0 0 min 0,000 mm 0 W/m 4,5 C 5,9 C 0,0 km/h (0 Bft) 100 %
29.10.2014 05:00 5,9 C 5,8 C 5,9 C 91 % 1017,5 hPa 0,0 l/m 0,0 km/h (0 Bft) N 0 0 min 0,000 mm 0 W/m 4,5 C 5,9 C 0,0 km/h (0 Bft) 91 %
29.10.2014 05:10 5,9 C 5,9 C 5,9 C 91 % 1017,4 hPa 0,0 l/m 0,0 km/h (0 Bft) N 0 0 min 0,000 mm 0 W/m 4,5 C 5,9 C 0,0 km/h (0 Bft) 100 %
29.10.2014 05:20 5,9 C 5,8 C 5,9 C 91 % 1017,5 hPa 0,0 l/m 0,0 km/h (0 Bft) N 0 0 min 0,000 mm 0 W/m 4,5 C 5,9 C 0,0 km/h (0 Bft) 100 %
29.10.2014 05:30 5,9 C 5,9 C 5,9 C 91 % 1017,4 hPa 0,0 l/m 0,0 km/h (0 Bft) N 0 0 min 0,000 mm 0 W/m 4,5 C 5,9 C 0,0 km/h (0 Bft) 100 %
29.10.2014 05:40 5,9 C 5,9 C 5,9 C 91 % 1017,4 hPa 0,0 l/m 0,0 km/h (0 Bft) N 0 0 min 0,000 mm 0 W/m 4,5 C 5,9 C 0,0 km/h (0 Bft) 100 %
29.10.2014 05:50 5,9 C 5,9 C 5,9 C 91 % 1017,6 hPa 0,0 l/m 0,0 km/h (0 Bft) N 0 0 min 0,000 mm 0 W/m 4,5 C 5,9 C 0,0 km/h (0 Bft) 100 %
29.10.2014 06:00 5,9 C 5,9 C 5,9 C 91 % 1017,5 hPa 0,0 l/m 0,0 km/h (0 Bft) N 0 0 min 0,000 mm 0 W/m 4,5 C 5,9 C 0,0 km/h (0 Bft) 100 %
29.10.2014 06:10 5,9 C 5,9 C 5,9 C 91 % 1017,5 hPa 0,0 l/m 0,0 km/h (0 Bft) N 0 0 min 0,000 mm 0 W/m 4,5 C 5,9 C 0,0 km/h (0 Bft) 100 %
29.10.2014 06:20 5,9 C 5,9 C 5,9 C 91 % 1017,5 hPa 0,0 l/m 0,0 km/h (0 Bft) N 0 0 min 0,000 mm 0 W/m 4,5 C 5,9 C 0,0 km/h (0 Bft) 100 %
29.10.2014 06:30 5,9 C 5,9 C 5,9 C 91 % 1017,5 hPa 0,0 l/m 0,0 km/h (0 Bft) N 0 0 min 0,000 mm 0 W/m 4,5 C 5,9 C 0,0 km/h (0 Bft) 100 %
29.10.2014 06:40 5,9 C 5,9 C 5,9 C 91 % 1017,7 hPa 0,0 l/m 0,0 km/h (0 Bft) N 0 0 min 0,000 mm 0 W/m 4,5 C 5,9 C 0,0 km/h (0 Bft) 100 %
29.10.2014 06:50 5,9 C 5,9 C 6,0 C 91 % 1017,7 hPa 0,0 l/m 0,0 km/h (0 Bft) N 0 0 min 0,000 mm 0 W/m 4,5 C 5,9 C 0,0 km/h (0 Bft) 100 %
29.10.2014 07:00 6,0 C 5,9 C 6,0 C 91 % 1017,8 hPa 0,0 l/m 0,0 km/h (0 Bft) N 0 0 min 0,000 mm 0 W/m 4,6 C 6,0 C 0,0 km/h (0 Bft) 100 %
29.10.2014 07:10 6,1 C 6,0 C 6,1 C 91 % 1017,9 hPa 0,0 l/m 0,0 km/h (0 Bft) N 0 0 min 0,000 mm 0 W/m 4,7 C 6,1 C 0,0 km/h (0 Bft) 100 %
29.10.2014 07:20 6,1 C 6,1 C 6,1 C 91 % 1017,9 hPa 0,0 l/m 0,0 km/h (0 Bft) N 0 0 min 0,000 mm 5 W/m 4,7 C 6,1 C 0,0 km/h (0 Bft) 100 %
29.10.2014 07:30 6,1 C 6,1 C 6,1 C 91 % 1018,0 hPa 0,0 l/m 1,6 km/h (1 Bft) NO 45 0 min 0,000 mm 11 W/m 4,7 C 6,1 C 3,2 km/h (1 Bft) 100 %
29.10.2014 07:40 6,1 C 6,1 C 6,2 C 91 % 1018,1 hPa 0,0 l/m 0,0 km/h (0 Bft) SO 135 0 min 0,000 mm 12 W/m 4,7 C 6,1 C 3,2 km/h (1 Bft) 100 %
29.10.2014 07:50 6,2 C 6,1 C 6,2 C 91 % 1018,2 hPa 0,0 l/m 0,0 km/h (0 Bft) SO 135 0 min 0,000 mm 18 W/m 4,8 C 6,2 C 1,6 km/h (1 Bft) 100 %
29.10.2014 08:00 6,2 C 6,2 C 6,2 C 91 % 1018,2 hPa 0,0 l/m 0,0 km/h (0 Bft) S-SO 157 0 min 0,000 mm 25 W/m 4,8 C 6,2 C 3,2 km/h (1 Bft) 100 %
29.10.2014 08:10 6,3 C 6,2 C 6,3 C 91 % 1018,3 hPa 0,0 l/m 1,6 km/h (1 Bft) S 180 0 min 0,000 mm 28 W/m 4,9 C 6,3 C 6,4 km/h (2 Bft) 100 %
29.10.2014 08:20 6,3 C 6,3 C 6,3 C 91 % 1018,4 hPa 0,0 l/m 0,0 km/h (0 Bft) S 180 0 min 0,000 mm 32 W/m 4,9 C 6,3 C 1,6 km/h (1 Bft) 100 %
29.10.2014 08:30 6,4 C 6,3 C 6,4 C 91 % 1018,4 hPa 0,0 l/m 1,6 km/h (1 Bft) S 180 0 min 0,000 mm 40 W/m 5,0 C 6,4 C 6,4 km/h (2 Bft) 100 %
29.10.2014 08:40 6,4 C 6,4 C 6,4 C 91 % 1018,5 hPa 0,0 l/m 0,0 km/h (0 Bft) S 180 0 min 0,000 mm 46 W/m 5,0 C 6,4 C 1,6 km/h (1 Bft) 100 %
29.10.2014 08:50 6,5 C 6,4 C 6,5 C 91 % 1018,6 hPa 0,0 l/m 1,6 km/h (1 Bft) S 180 0 min 0,000 mm 51 W/m 5,1 C 6,5 C 8,0 km/h (2 Bft) 100 %
29.10.2014 09:00 6,6 C 6,5 C 6,6 C 91 % 1018,6 hPa 0,0 l/m 1,6 km/h (1 Bft) S-SO 157 0 min 0,025 mm 58 W/m 5,2 C 6,6 C 9,7 km/h (2 Bft) 100 %
29.10.2014 09:10 6,7 C 6,6 C 6,7 C 91 % 1018,6 hPa 0,0 l/m 1,6 km/h (1 Bft) S-SO 157 0 min 0,000 mm 69 W/m 5,3 C 6,7 C 6,4 km/h (2 Bft) 100 %
29.10.2014 09:20 6,8 C 6,7 C 6,8 C 91 % 1018,8 hPa 0,0 l/m 0,0 km/h (0 Bft) S-SO 157 0 min 0,000 mm 76 W/m 5,4 C 6,8 C 6,4 km/h (2 Bft) 100 %
29.10.2014 09:30 6,9 C 6,8 C 6,9 C 91 % 1018,8 hPa 0,0 l/m 0,0 km/h (0 Bft) S-SO 157 0 min 0,000 mm 84 W/m 5,5 C 6,9 C 1,6 km/h (1 Bft) 100 %
29.10.2014 09:40 7,1 C 6,9 C 7,1 C 91 % 1018,8 hPa 0,0 l/m 0,0 km/h (0 Bft) S 180 0 min 0,000 mm 104 W/m 5,7 C 7,1 C 4,8 km/h (1 Bft) 100 %
29.10.2014 09:50 7,3 C 7,1 C 7,3 C 91 % 1018,9 hPa 0,0 l/m 0,0 km/h (0 Bft) S-SW 202 0 min 0,000 mm 116 W/m 5,9 C 7,3 C 3,2 km/h (1 Bft) 100 %
29.10.2014 10:00 7,4 C 7,3 C 7,4 C 91 % 1018,9 hPa 0,0 l/m 0,0 km/h (0 Bft) S-SW 202 0 min 0,025 mm 111 W/m 6,0 C 7,4 C 1,6 km/h (1 Bft) 100 %
29.10.2014 10:10 7,6 C 7,4 C 7,6 C 91 % 1018,9 hPa 0,0 l/m 0,0 km/h (0 Bft) S-SW 202 0 min 0,000 mm 105 W/m 6,2 C 7,6 C 3,2 km/h (1 Bft) 100 %
29.10.2014 10:20 7,8 C 7,6 C 7,8 C 91 % 1019,0 hPa 0,0 l/m 0,0 km/h (0 Bft) S-SW 202 0 min 0,000 mm 102 W/m 6,4 C 7,8 C 4,8 km/h (1 Bft) 100 %
29.10.2014 10:30 7,9 C 7,8 C 7,9 C 92 % 1019,0 hPa 0,0 l/m 0,0 km/h (0 Bft) N 0 0 min 0,000 mm 102 W/m 6,7 C 7,9 C 0,0 km/h (0 Bft) 100 %
29.10.2014 10:40 8,0 C 7,9 C 8,0 C 91 % 1019,1 hPa 0,0 l/m 0,0 km/h (0 Bft) S-SW 202 0 min 0,000 mm 100 W/m 6,6 C 8,0 C 3,2 km/h (1 Bft) 100 %
29.10.2014 10:50 8,2 C 8,0 C 8,2 C 91 % 1019,2 hPa 0,0 l/m 1,6 km/h (1 Bft) S-SW 202 0 min 0,000 mm 109 W/m 6,8 C 8,2 C 4,8 km/h (1 Bft) 100 %
29.10.2014 11:00 8,3 C 8,2 C 8,3 C 91 % 1019,2 hPa 0,0 l/m 0,0 km/h (0 Bft) S 180 0 min 0,051 mm 128 W/m 6,9 C 8,3 C 4,8 km/h (1 Bft) 100 %
29.10.2014 11:10 8,5 C 8,3 C 8,5 C 91 % 1019,2 hPa 0,0 l/m 1,6 km/h (1 Bft) S-SW 202 0 min 0,000 mm 130 W/m 7,1 C 8,5 C 8,0 km/h (2 Bft) 100 %
29.10.2014 11:20 8,6 C 8,5 C 8,6 C 91 % 1019,1 hPa 0,0 l/m 0,0 km/h (0 Bft) N 0 0 min 0,000 mm 148 W/m 7,2 C 8,6 C 0,0 km/h (0 Bft) 99 %
29.10.2014 11:30 8,8 C 8,6 C 8,8 C 90 % 1019,0 hPa 0,0 l/m 1,6 km/h (1 Bft) W 270 10 min 0,000 mm 179 W/m 7,3 C 8,8 C 4,8 km/h (1 Bft) 100 %
29.10.2014 11:40 9,1 C 8,8 C 9,1 C 89 % 1019,0 hPa 0,0 l/m 0,0 km/h (0 Bft) W 270 10 min 0,000 mm 156 W/m 7,4 C 9,1 C 3,2 km/h (1 Bft) 100 %
29.10.2014 12:00 9,4 C 8,8 C 9,4 C 88 % 1019,0 hPa 0,0 l/m 0,7 km/h (0 Bft) W-SW 250 0 min 0,077 mm 137 W/m 7,5 C 9,4 C 4,8 km/h (1 Bft) 100 %
29.10.2014 12:10 9,5 C 9,4 C 9,5 C 87 % 1018,9 hPa 0,0 l/m 1,9 km/h (1 Bft) W 275 0 min 0,000 mm 113 W/m 7,4 C 9,5 C 9,7 km/h (2 Bft) 100 %
29.10.2014 12:20 9,6 C 9,4 C 9,6 C 88 % 1018,7 hPa 0,0 l/m 0,2 km/h (0 Bft) W 264 0 min 0,000 mm 135 W/m 7,7 C 9,6 C 4,8 km/h (1 Bft) 100 %
29.10.2014 12:30 9,7 C 9,6 C 9,7 C 87 % 1018,8 hPa 0,0 l/m 1,1 km/h (1 Bft) W-NW 302 0 min 0,000 mm 132 W/m 7,6 C 9,7 C 6,4 km/h (2 Bft) 91 %
29.10.2014 12:40 9,8 C 9,7 C 9,8 C 87 % 1018,8 hPa 0,0 l/m 3,8 km/h (1 Bft) W 259 0 min 0,000 mm 120 W/m 7,7 C 9,8 C 9,7 km/h (2 Bft) 100 %
29.10.2014 12:50 9,8 C 9,8 C 9,8 C 87 % 1018,8 hPa 0,0 l/m 1,1 km/h (1 Bft) W 260 0 min 0,000 mm 125 W/m 7,7 C 9,8 C 6,4 km/h (2 Bft) 100 %
29.10.2014 13:00 9,9 C 9,8 C 9,9 C 88 % 1018,9 hPa 0,0 l/m 0,7 km/h (0 Bft) W-NW 282 0 min 0,051 mm 127 W/m 8,0 C 9,9 C 9,7 km/h (2 Bft) 100 %
29.10.2014 13:10 10,0 C 9,9 C 10,0 C 87 % 1018,7 hPa 0,0 l/m 0,3 km/h (0 Bft) SW 214 0 min 0,000 mm 90 W/m 7,9 C 10,0 C 6,4 km/h (2 Bft) 100 %
29.10.2014 13:20 10,0 C 10,0 C 10,0 C 87 % 1018,7 hPa 0,0 l/m 2,7 km/h (1 Bft) W-NW 300 0 min 0,000 mm 90 W/m 7,9 C 10,0 C 9,7 km/h (2 Bft) 100 %
29.10.2014 13:30 9,9 C 9,9 C 10,0 C 86 % 1018,7 hPa 0,0 l/m 4,0 km/h (1 Bft) W 261 0 min 0,000 mm 86 W/m 7,7 C 9,9 C 11,3 km/h (2 Bft) 100 %
29.10.2014 13:40 9,9 C 9,9 C 10,0 C 86 % 1018,6 hPa 0,0 l/m 3,1 km/h (1 Bft) W 265 0 min 0,000 mm 104 W/m 7,7 C 9,9 C 9,7 km/h (2 Bft) 99 %
29.10.2014 13:50 10,0 C 9,9 C 10,0 C 86 % 1018,6 hPa 0,0 l/m 3,2 km/h (1 Bft) SW 227 0 min 0,000 mm 100 W/m 7,8 C 10,0 C 11,3 km/h (2 Bft) 100 %
29.10.2014 14:00 10,0 C 10,0 C 10,1 C 86 % 1018,7 hPa 0,0 l/m 3,3 km/h (1 Bft) W-NW 299 0 min 0,050 mm 86 W/m 7,8 C 10,0 C 11,3 km/h (2 Bft) 100 %
29.10.2014 14:10 10,0 C 10,0 C 10,0 C 85 % 1018,7 hPa 0,0 l/m 4,5 km/h (1 Bft) W-NW 287 0 min 0,000 mm 79 W/m 7,6 C 10,0 C 14,5 km/h (3 Bft) 100 %
29.10.2014 14:20 10,0 C 10,0 C 10,0 C 85 % 1018,7 hPa 0,0 l/m 5,1 km/h (1 Bft) W-NW 287 0 min 0,000 mm 113 W/m 7,6 C 10,0 C 11,3 km/h (2 Bft) 91 %
29.10.2014 14:30 10,1 C 10,0 C 10,1 C 85 % 1018,6 hPa 0,0 l/m 2,5 km/h (1 Bft) W 260 0 min 0,000 mm 141 W/m 7,7 C 10,1 C 16,1 km/h (3 Bft) 100 %
29.10.2014 14:40 10,2 C 10,1 C 10,2 C 84 % 1018,6 hPa 0,0 l/m 5,2 km/h (1 Bft) NW 310 0 min 0,000 mm 116 W/m 7,6 C 10,2 C 16,1 km/h (3 Bft) 100 %
29.10.2014 14:50 10,2 C 10,2 C 10,2 C 84 % 1018,5 hPa 0,0 l/m 5,4 km/h (1 Bft) W-SW 254 0 min 0,000 mm 91 W/m 7,6 C 10,2 C 14,5 km/h (3 Bft) 100 %
29.10.2014 15:00 10,2 C 10,2 C 10,2 C 84 % 1018,6 hPa 0,0 l/m 4,5 km/h (1 Bft) S-SW 195 0 min 0,000 mm 88 W/m 7,6 C 10,2 C 14,5 km/h (3 Bft) 100 %
29.10.2014 15:10 10,2 C 10,2 C 10,2 C 83 % 1018,5 hPa 0,0 l/m 5,1 km/h (1 Bft) W 275 0 min 0,051 mm 100 W/m 7,4 C 10,2 C 16,1 km/h (3 Bft) 100 %
29.10.2014 15:20 10,3 C 10,2 C 10,3 C 83 % 1018,6 hPa 0,0 l/m 3,7 km/h (1 Bft) W 276 0 min 0,000 mm 79 W/m 7,5 C 10,3 C 16,1 km/h (3 Bft) 99 %
29.10.2014 15:30 10,3 C 10,3 C 10,3 C 83 % 1018,6 hPa 0,0 l/m 3,2 km/h (1 Bft) W 265 0 min 0,000 mm 83 W/m 7,5 C 10,3 C 9,7 km/h (2 Bft) 100 %
29.10.2014 15:40 10,3 C 10,3 C 10,3 C 83 % 1018,6 hPa 0,0 l/m 1,5 km/h (1 Bft) NW 304 0 min 0,000 mm 49 W/m 7,5 C 10,3 C 6,4 km/h (2 Bft) 99 %
29.10.2014 15:50 10,3 C 10,3 C 10,3 C 83 % 1018,7 hPa 0,0 l/m 2,2 km/h (1 Bft) W-NW 294 0 min 0,000 mm 30 W/m 7,5 C 10,3 C 9,7 km/h (2 Bft) 100 %
29.10.2014 16:00 10,2 C 10,2 C 10,3 C 83 % 1018,6 hPa 0,0 l/m 3,4 km/h (1 Bft) NW 305 0 min 0,051 mm 32 W/m 7,4 C 10,2 C 9,7 km/h (2 Bft) 100 %
29.10.2014 16:10 10,1 C 10,1 C 10,2 C 84 % 1018,6 hPa 0,0 l/m 1,2 km/h (1 Bft) W-NW 300 0 min 0,000 mm 37 W/m 7,5 C 10,1 C 4,8 km/h (1 Bft) 100 %
29.10.2014 16:20 9,9 C 9,9 C 10,1 C 84 % 1018,4 hPa 0,0 l/m 1,3 km/h (1 Bft) NW 311 0 min 0,000 mm 32 W/m 7,3 C 9,9 C 6,4 km/h (2 Bft) 100 %
29.10.2014 16:30 9,8 C 9,8 C 9,9 C 85 % 1018,7 hPa 0,0 l/m 0,6 km/h (0 Bft) NW 311 0 min 0,000 mm 35 W/m 7,4 C 9,8 C 4,8 km/h (1 Bft) 100 %
29.10.2014 16:40 9,7 C 9,7 C 9,8 C 85 % 1018,7 hPa 0,0 l/m 0,4 km/h (0 Bft) NW 311 0 min 0,000 mm 23 W/m 7,3 C 9,7 C 4,8 km/h (1 Bft) 100 %
29.10.2014 16:50 9,7 C 9,7 C 9,7 C 86 % 1018,8 hPa 0,0 l/m 0,2 km/h (0 Bft) NW 311 0 min 0,000 mm 12 W/m 7,5 C 9,7 C 3,2 km/h (1 Bft) 100 %
29.10.2014 17:00 9,6 C 9,6 C 9,7 C 86 % 1018,7 hPa 0,0 l/m 0,0 km/h (0 Bft) NW 311 0 min 0,025 mm 9 W/m 7,4 C 9,6 C 1,6 km/h (1 Bft) 100 %
29.10.2014 17:10 9,4 C 9,4 C 9,6 C 87 % 1018,9 hPa 0,0 l/m 0,1 km/h (0 Bft) NW 313 0 min 0,000 mm 0 W/m 7,3 C 9,4 C 3,2 km/h (1 Bft) 100 %
29.10.2014 17:20 9,2 C 9,2 C 9,4 C 87 % 1018,9 hPa 0,0 l/m 0,0 km/h (0 Bft) NW 313 0 min 0,000 mm 0 W/m 7,2 C 9,2 C 0,0 km/h (0 Bft) 100 %
29.10.2014 17:30 8,9 C 8,9 C 9,2 C 88 % 1019,0 hPa 0,0 l/m 0,0 km/h (0 Bft) NW 313 0 min 0,000 mm 0 W/m 7,0 C 8,9 C 0,0 km/h (0 Bft) 100 %
29.10.2014 17:40 8,7 C 8,7 C 8,9 C 89 % 1019,0 hPa 0,0 l/m 0,0 km/h (0 Bft) NW 313 0 min 0,000 mm 0 W/m 7,0 C 8,7 C 0,0 km/h (0 Bft) 100 %
29.10.2014 17:50 8,5 C 8,5 C 8,7 C 90 % 1019,0 hPa 0,0 l/m 0,0 km/h (0 Bft) NW 313 0 min 0,000 mm 0 W/m 7,0 C 8,5 C 0,0 km/h (0 Bft) 100 %
29.10.2014 18:00 8,3 C 8,3 C 8,5 C 90 % 1019,0 hPa 0,0 l/m 0,0 km/h (0 Bft) NW 313 0 min 0,000 mm 0 W/m 6,8 C 8,3 C 0,0 km/h (0 Bft) 100 %
29.10.2014 18:10 8,1 C 8,1 C 8,3 C 89 % 1019,0 hPa 0,0 l/m 0,0 km/h (0 Bft) NW 313 0 min 0,000 mm 0 W/m 6,4 C 8,1 C 0,0 km/h (0 Bft) 100 %
29.10.2014 18:20 7,8 C 7,8 C 8,1 C 89 % 1019,0 hPa 0,0 l/m 0,0 km/h (0 Bft) NW 313 0 min 0,000 mm 0 W/m 6,1 C 7,8 C 0,0 km/h (0 Bft) 100 %
29.10.2014 18:30 7,5 C 7,5 C 7,8 C 89 % 1019,1 hPa 0,0 l/m 0,0 km/h (0 Bft) NW 313 0 min 0,000 mm 0 W/m 5,8 C 7,5 C 0,0 km/h (0 Bft) 100 %
29.10.2014 18:40 7,2 C 7,2 C 7,5 C 90 % 1019,2 hPa 0,0 l/m 0,0 km/h (0 Bft) NW 313 0 min 0,000 mm 0 W/m 5,7 C 7,2 C 0,0 km/h (0 Bft) 100 %
29.10.2014 18:50 6,9 C 6,9 C 7,2 C 90 % 1019,4 hPa 0,0 l/m 0,0 km/h (0 Bft) NW 313 0 min 0,000 mm 0 W/m 5,4 C 6,9 C 0,0 km/h (0 Bft) 100 %
29.10.2014 19:00 6,7 C 6,7 C 6,9 C 91 % 1019,5 hPa 0,0 l/m 0,0 km/h (0 Bft) NW 313 0 min 0,000 mm 0 W/m 5,3 C 6,7 C 0,0 km/h (0 Bft) 100 %
29.10.2014 19:10 6,6 C 6,6 C 6,7 C 91 % 1019,7 hPa 0,0 l/m 0,0 km/h (0 Bft) NW 313 0 min 0,000 mm 0 W/m 5,2 C 6,6 C 0,0 km/h (0 Bft) 100 %
29.10.2014 19:20 6,6 C 6,6 C 6,6 C 91 % 1019,8 hPa 0,0 l/m 0,0 km/h (0 Bft) NW 313 0 min 0,000 mm 0 W/m 5,2 C 6,6 C 0,0 km/h (0 Bft) 100 %
29.10.2014 19:30 6,6 C 6,6 C 6,6 C 91 % 1019,9 hPa 0,0 l/m 0,0 km/h (0 Bft) NW 313 0 min 0,000 mm 0 W/m 5,2 C 6,6 C 0,0 km/h (0 Bft) 100 %
29.10.2014 19:40 6,6 C 6,6 C 6,6 C 91 % 1019,8 hPa 0,0 l/m 0,0 km/h (0 Bft) NW 313 0 min 0,000 mm 0 W/m 5,2 C 6,6 C 0,0 km/h (0 Bft) 100 %
29.10.2014 19:50 6,5 C 6,5 C 6,6 C 91 % 1019,8 hPa 0,0 l/m 0,0 km/h (0 Bft) NW 313 0 min 0,000 mm 0 W/m 5,1 C 6,5 C 0,0 km/h (0 Bft) 100 %
29.10.2014 20:00 6,4 C 6,4 C 6,5 C 91 % 1019,8 hPa 0,0 l/m 0,0 km/h (0 Bft) NW 313 0 min 0,000 mm 0 W/m 5,0 C 6,4 C 0,0 km/h (0 Bft) 100 %
29.10.2014 20:10 6,3 C 6,3 C 6,4 C 91 % 1019,9 hPa 0,0 l/m 0,0 km/h (0 Bft) NW 313 0 min 0,000 mm 0 W/m 4,9 C 6,3 C 0,0 km/h (0 Bft) 99 %
29.10.2014 20:20 6,2 C 6,2 C 6,3 C 91 % 1020,0 hPa 0,0 l/m 0,0 km/h (0 Bft) NW 313 0 min 0,000 mm 0 W/m 4,8 C 6,2 C 1,6 km/h (1 Bft) 100 %
29.10.2014 20:30 6,0 C 6,0 C 6,2 C 91 % 1019,9 hPa 0,0 l/m 0,0 km/h (0 Bft) NW 313 0 min 0,000 mm 0 W/m 4,6 C 6,0 C 0,0 km/h (0 Bft) 100 %
29.10.2014 20:40 5,9 C 5,9 C 6,0 C 91 % 1020,1 hPa 0,0 l/m 0,0 km/h (0 Bft) NW 313 0 min 0,000 mm 0 W/m 4,5 C 5,9 C 1,6 km/h (1 Bft) 100 %
29.10.2014 20:50 5,8 C 5,8 C 5,9 C 91 % 1020,3 hPa 0,0 l/m 0,0 km/h (0 Bft) NW 313 0 min 0,000 mm 0 W/m 4,4 C 5,8 C 0,0 km/h (0 Bft) 100 %
29.10.2014 21:00 5,9 C 5,8 C 5,9 C 91 % 1020,4 hPa 0,0 l/m 0,0 km/h (0 Bft) NW 313 0 min 0,000 mm 0 W/m 4,5 C 5,9 C 0,0 km/h (0 Bft) 100 %
29.10.2014 21:10 5,9 C 5,9 C 5,9 C 91 % 1020,4 hPa 0,0 l/m 0,0 km/h (0 Bft) N 0 0 min 0,000 mm 0 W/m 4,5 C 5,9 C 0,0 km/h (0 Bft) 98 %
29.10.2014 21:20 6,0 C 5,9 C 6,0 C 91 % 1020,4 hPa 0,0 l/m 0,0 km/h (0 Bft) N 0 0 min 0,000 mm 0 W/m 4,6 C 6,0 C 0,0 km/h (0 Bft) 98 %
29.10.2014 21:30 6,0 C 6,0 C 6,0 C 91 % 1020,5 hPa 0,0 l/m 0,0 km/h (0 Bft) NW 315 0 min 0,000 mm 0 W/m 4,6 C 6,0 C 1,6 km/h (1 Bft) 98 %
29.10.2014 21:40 5,9 C 5,9 C 6,0 C 91 % 1020,6 hPa 0,0 l/m 0,0 km/h (0 Bft) NW 315 0 min 0,000 mm 0 W/m 4,5 C 5,9 C 1,6 km/h (1 Bft) 97 %
29.10.2014 21:50 5,9 C 5,9 C 5,9 C 91 % 1020,8 hPa 0,0 l/m 0,0 km/h (0 Bft) NW 315 0 min 0,000 mm 0 W/m 4,5 C 5,9 C 1,6 km/h (1 Bft) 98 %
29.10.2014 22:00 5,9 C 5,8 C 5,9 C 91 % 1020,8 hPa 0,0 l/m 0,0 km/h (0 Bft) NW 315 0 min 0,000 mm 0 W/m 4,5 C 5,9 C 1,6 km/h (1 Bft) 98 %
29.10.2014 22:10 5,9 C 5,8 C 5,9 C 91 % 1020,8 hPa 0,0 l/m 0,0 km/h (0 Bft) NW 315 0 min 0,000 mm 0 W/m 4,5 C 5,9 C 1,6 km/h (1 Bft) 98 %
29.10.2014 22:20 6,0 C 5,9 C 6,0 C 91 % 1021,0 hPa 0,0 l/m 0,0 km/h (0 Bft) NW 315 0 min 0,000 mm 0 W/m 4,6 C 6,0 C 3,2 km/h (1 Bft) 98 %
29.10.2014 22:30 6,1 C 6,0 C 6,1 C 91 % 1021,1 hPa 0,0 l/m 0,0 km/h (0 Bft) NW 315 0 min 0,000 mm 0 W/m 4,7 C 6,1 C 3,2 km/h (1 Bft) 98 %
29.10.2014 22:40 6,1 C 6,1 C 6,2 C 91 % 1021,1 hPa 0,0 l/m 0,0 km/h (0 Bft) NW 315 0 min 0,000 mm 0 W/m 4,7 C 6,1 C 1,6 km/h (1 Bft) 97 %
29.10.2014 22:50 6,2 C 6,1 C 6,2 C 91 % 1021,1 hPa 0,2 l/m 0,0 km/h (0 Bft) NW 315 0 min 0,000 mm 0 W/m 4,8 C 6,2 C 3,2 km/h (1 Bft) 98 %
29.10.2014 23:00 6,3 C 6,2 C 6,3 C 91 % 1021,2 hPa 0,4 l/m 0,0 km/h (0 Bft) NW 315 0 min 0,000 mm 0 W/m 4,9 C 6,3 C 1,6 km/h (1 Bft) 98 %
29.10.2014 23:10 6,3 C 6,3 C 6,3 C 91 % 1021,0 hPa 0,2 l/m 0,0 km/h (0 Bft) N 0 0 min 0,000 mm 0 W/m 4,9 C 6,3 C 0,0 km/h (0 Bft) 98 %
29.10.2014 23:20 6,4 C 6,3 C 6,4 C 91 % 1021,1 hPa 0,6 l/m 0,0 km/h (0 Bft) N 0 0 min 0,000 mm 0 W/m 5,0 C 6,4 C 0,0 km/h (0 Bft) 98 %
29.10.2014 23:30 6,6 C 6,4 C 6,6 C 91 % 1021,1 hPa 0,2 l/m 0,0 km/h (0 Bft) N 0 0 min 0,000 mm 0 W/m 5,2 C 6,6 C 0,0 km/h (0 Bft) 98 %
29.10.2014 23:40 6,7 C 6,6 C 6,7 C 91 % 1021,2 hPa 0,2 l/m 0,0 km/h (0 Bft) N 0 0 min 0,000 mm 0 W/m 5,3 C 6,7 C 0,0 km/h (0 Bft) 98 %
29.10.2014 23:50 6,8 C 6,7 C 6,8 C 91 % 1021,4 hPa 0,0 l/m 0,0 km/h (0 Bft) N 0 0 min 0,000 mm 0 W/m 5,4 C 6,8 C 0,0 km/h (0 Bft) 97 %
_ Min-Zeit 00:00 00:00 00:00 15:10 03:40 - 00:00 - - - - - 00:00 00:00 00:00 14:20
Minimum _ 5,5 C 5,4 C 5,5 C 83 % 1017,2 hPa - 0,0 km/h (0 Bft) - - - - - 4,2 C 5,5 C 0,0 km/h (0 Bft) 91 %
_ Max-Zeit 15:20 15:30 15:20 10:30 23:50 23:20 14:50 - - 11:30 12:00 11:30 13:00 15:20 14:30 00:00
Maximum _ 10,3 C 10,3 C 10,3 C 92 % 1021,4 hPa 0,6 l/m 5,4 km/h
W-SW (1 Bft)
- - 10 min 0,077 mm 179 W/m 8,0 C 10,3 C 16,1 km/h
W-NW (3 Bft)
100 %
Durchschnitt _ 7,2 C 7,2 C 7,3 C 90 % 1018,8 hPa #1,8 l/m 0,6 km/h (0 Bft) W - #20 min. #0,406 mm 82 W/m 5,6 C 7,2 C 3,0 km/h (1 Bft) 99 %
PRIVATE WETTERSTATION BILLIGHEIM-ALLFELD - www.neckar-odenwald-wetter.de - Holger Sonntag